Weather History for KIKK - June, 2012

Change the Weather History Date:

Monday, June 25, 2012

  Actual Average Record
Temperature  
Mean Temperature 66 °F -  
Max Temperature 75 °F 84 °F 95 °F (2005)
Min Temperature 58 °F 60 °F 40 °F (1986)
Cooling Degree Days 2    
Growing Degree Days 16 (Base 50)    
Moisture  
Dew Point 49 °F    
Average Humidity 51    
Maximum Humidity 80    
Minimum Humidity 30    
Precipitation  
Precipitation 0.00 in - - ()
Sea Level Pressure  
Sea Level Pressure 30.04 in    
Wind  
Wind Speed 10 mph (NNE)    
Max Wind Speed 18 mph    
Max Gust Speed 24 mph    
Visibility 10 miles    
Events      
Averages and records for this station are not official NWS values.
T = Trace of Precipitation, MM = Missing Value Source: NWS Daily Summary

Daily Weather History Graph

Daily Weather History Graph

Search for Another Location

Airport or City:

Trip Planner

Search our weather history database for the weather conditions in past years. The results will help you decide how hot, cold, wet, or windy it might be!

Date:

Astronomy

Jun. 25, 2012 Rise Set
Actual Time 5:20 AM CDT 8:27 PM CDT
Civil Twilight 4:46 AM CDT 9:01 PM CDT
Nautical Twilight 4:03 AM CDT 9:44 PM CDT
Astronomical Twilight 3:12 AM CDT 10:35 PM CDT
Moon 11:33 AM CDT (6/25) 11:52 PM CDT (6/25)
Length of Visible Light 16h 14m
Length of Day
15h 07m
Waxing Crescent, 34% of the Moon is Illuminated
Jun 25
Waxing Crescent
Jun 26
First Quarter
Jul 3
Full
Jul 10
Last Quarter
Jul 18
New

Hourly Weather History & Observations

Time (CDT) Temp. Dew Point Humidity Pressure Visibility Wind Dir Wind Speed Gust Speed Precip Events Conditions
12:15 AM 72.5 °F 60.1 °F 65% 29.96 in 10.0 mi NNE 5.8 mph - N/A   Scattered Clouds
12:35 AM 71.8 °F 59.5 °F 65% 29.96 in 10.0 mi NE 8.1 mph - N/A   Scattered Clouds
12:55 AM 71.6 °F 59.9 °F 66% 29.96 in 10.0 mi NNE 8.1 mph - N/A   Overcast
1:15 AM 71.2 °F 60.1 °F 68% 29.96 in 10.0 mi NNE 5.8 mph - N/A   Overcast
1:35 AM 70.7 °F 60.8 °F 71% 29.97 in 10.0 mi NNE 5.8 mph - N/A   Overcast
1:55 AM 70.2 °F 61.7 °F 74% 29.98 in 10.0 mi NNE 6.9 mph - N/A   Overcast
2:15 AM 70.0 °F 61.2 °F 73% 29.99 in 10.0 mi NNE 6.9 mph - N/A   Mostly Cloudy
2:35 AM 69.8 °F 60.8 °F 73% 29.99 in 10.0 mi NNE 10.4 mph 17.3 mph N/A   Mostly Cloudy
2:55 AM 68.9 °F 61.3 °F 77% 29.99 in 10.0 mi NNE 8.1 mph - N/A   Mostly Cloudy
3:15 AM 68.4 °F 61.7 °F 79% 29.99 in 10.0 mi NNE 10.4 mph - N/A   Mostly Cloudy
3:35 AM 68.0 °F 61.7 °F 80% 30.00 in 10.0 mi NNE 9.2 mph - N/A   Scattered Clouds
3:55 AM 68.0 °F 60.8 °F 78% 30.00 in 10.0 mi NNE 9.2 mph 16.1 mph N/A   Scattered Clouds
4:15 AM 68.2 °F 56.7 °F 67% 30.01 in 10.0 mi NNE 11.5 mph 19.6 mph N/A   Scattered Clouds
4:35 AM 68.5 °F 48.0 °F 48% 30.01 in 10.0 mi NNE 12.7 mph 18.4 mph N/A   Mostly Cloudy
4:55 AM 68.2 °F 45.1 °F 43% 30.02 in 10.0 mi NNE 10.4 mph 17.3 mph N/A   Mostly Cloudy
5:15 AM 68.0 °F 43.2 °F 41% 30.02 in 10.0 mi NNE 10.4 mph 17.3 mph N/A   Scattered Clouds
5:35 AM 68.2 °F 40.3 °F 36% 30.03 in 10.0 mi NNE 13.8 mph 18.4 mph N/A   Scattered Clouds
5:55 AM 68.0 °F 39.0 °F 35% 30.04 in 10.0 mi NNE 8.1 mph 17.3 mph N/A   Mostly Cloudy
6:15 AM 67.5 °F 40.8 °F 38% 30.05 in 10.0 mi NNE 8.1 mph 18.4 mph N/A   Overcast
6:35 AM 68.0 °F 40.1 °F 36% 30.05 in 10.0 mi NNE 10.4 mph 17.3 mph N/A   Overcast
6:55 AM 68.0 °F 43.0 °F 40% 30.06 in 10.0 mi NNE 10.4 mph 17.3 mph N/A   Mostly Cloudy
7:15 AM 68.0 °F 45.0 °F 43% 30.06 in 10.0 mi NNE 9.2 mph - N/A   Clear
7:35 AM 68.2 °F 50.2 °F 53% 30.06 in 10.0 mi NNE 8.1 mph 16.1 mph N/A   Scattered Clouds
7:55 AM 68.9 °F 46.4 °F 44% 30.06 in 10.0 mi NNE 11.5 mph 23.0 mph N/A   Clear
8:15 AM 69.1 °F 47.8 °F 47% 30.07 in 10.0 mi NNE 15.0 mph 20.7 mph N/A   Clear
8:35 AM 69.3 °F 48.7 °F 48% 30.07 in 10.0 mi NNE 15.0 mph 20.7 mph N/A   Clear
8:55 AM 69.1 °F 47.8 °F 47% 30.07 in 10.0 mi NNE 15.0 mph 20.7 mph N/A   Clear
9:15 AM 69.6 °F 46.0 °F 43% 30.08 in 10.0 mi NNE 10.4 mph 18.4 mph N/A   Clear
9:35 AM 70.7 °F 46.2 °F 42% 30.08 in 10.0 mi NNE 11.5 mph 19.6 mph N/A   Clear
9:55 AM 70.3 °F 46.0 °F 42% 30.08 in 10.0 mi NNE 11.5 mph 18.4 mph N/A   Clear
10:15 AM 70.9 °F 45.7 °F 40% 30.08 in 10.0 mi NE 18.4 mph 23.0 mph N/A   Clear
10:35 AM 70.9 °F 46.6 °F 42% 30.08 in 10.0 mi NE 15.0 mph 24.2 mph N/A   Clear
10:55 AM 72.0 °F 46.0 °F 40% 30.08 in 10.0 mi NE 13.8 mph 19.6 mph N/A   Clear
11:15 AM 72.3 °F 47.1 °F 41% 30.08 in 10.0 mi North 12.7 mph 19.6 mph N/A   Clear
11:35 AM 72.7 °F 45.7 °F 38% 30.08 in 10.0 mi NE 15.0 mph 19.6 mph N/A   Clear
11:55 AM 73.2 °F 45.7 °F 37% 30.08 in 10.0 mi NNE 15.0 mph 20.7 mph N/A   Clear
12:15 PM 73.4 °F 45.5 °F 37% 30.08 in 10.0 mi NE 15.0 mph 24.2 mph N/A   Clear
12:35 PM 73.8 °F 48.0 °F 40% 30.08 in 10.0 mi NE 12.7 mph 18.4 mph N/A   Clear
12:55 PM 74.3 °F 47.8 °F 39% 30.08 in 10.0 mi North 13.8 mph 19.6 mph N/A   Clear
1:15 PM 74.7 °F 48.0 °F 39% 30.07 in 10.0 mi NNE 15.0 mph 20.7 mph N/A   Clear
1:35 PM 74.5 °F 46.0 °F 36% 30.07 in 10.0 mi NE 18.4 mph 21.9 mph N/A   Clear
1:55 PM 74.3 °F 45.5 °F 36% 30.06 in 10.0 mi NNE 12.7 mph 23.0 mph N/A   Clear
2:15 PM 74.3 °F 43.9 °F 34% 30.06 in 10.0 mi NNE 15.0 mph 23.0 mph N/A   Clear
2:35 PM 74.7 °F 41.4 °F 30% 30.06 in 10.0 mi NNE 13.8 mph 20.7 mph N/A   Clear
2:55 PM 74.8 °F 42.1 °F 31% 30.06 in 10.0 mi NNE 11.5 mph 19.6 mph N/A   Clear
3:15 PM 75.2 °F 41.9 °F 30% 30.05 in 10.0 mi North 12.7 mph 18.4 mph N/A   Clear
3:35 PM 75.2 °F 41.9 °F 30% 30.05 in 10.0 mi NNE 13.8 mph 21.9 mph N/A   Clear
3:55 PM 75.6 °F 43.7 °F 32% 30.04 in 10.0 mi NE 17.3 mph 23.0 mph N/A   Clear
4:15 PM 75.2 °F 45.0 °F 34% 30.04 in 10.0 mi NE 15.0 mph 20.7 mph N/A   Clear
4:35 PM 74.7 °F 43.9 °F 33% 30.05 in 10.0 mi NNE 10.4 mph - N/A   Clear
4:55 PM 74.5 °F 43.7 °F 33% 30.04 in 10.0 mi NNE 10.4 mph 19.6 mph N/A   Clear
5:15 PM 74.3 °F 43.2 °F 33% 30.04 in 10.0 mi NNE 11.5 mph 17.3 mph N/A   Clear
5:35 PM 73.4 °F 44.4 °F 35% 30.04 in 10.0 mi North 11.5 mph 18.4 mph N/A   Clear
5:55 PM 72.5 °F 44.8 °F 37% 30.04 in 10.0 mi NNE 11.5 mph 19.6 mph N/A   Clear
6:15 PM 71.6 °F 46.0 °F 40% 30.04 in 10.0 mi NNE 13.8 mph 19.6 mph N/A   Clear
6:35 PM 70.7 °F 47.7 °F 44% 30.04 in 10.0 mi NNE 9.2 mph - N/A   Clear
6:55 PM 69.8 °F 48.6 °F 47% 30.05 in 10.0 mi NNE 13.8 mph 17.3 mph N/A   Clear
7:15 PM 68.9 °F 50.0 °F 51% 30.04 in 10.0 mi NNE 9.2 mph 17.3 mph N/A   Clear
7:35 PM 68.0 °F 50.5 °F 54% 30.04 in 10.0 mi NNE 15.0 mph 20.7 mph N/A   Clear
7:55 PM 66.6 °F 50.9 °F 57% 30.04 in 10.0 mi NNE 11.5 mph 16.1 mph N/A   Clear
8:15 PM 65.3 °F 50.7 °F 59% 30.04 in 10.0 mi NNE 10.4 mph 17.3 mph N/A   Clear
8:35 PM 64.4 °F 50.9 °F 62% 30.04 in 10.0 mi NNE 8.1 mph - N/A   Clear
8:55 PM 63.5 °F 51.4 °F 65% 30.05 in 10.0 mi NNE 6.9 mph - N/A   Clear
9:15 PM 62.8 °F 51.4 °F 66% 30.05 in 10.0 mi NNE 6.9 mph - N/A   Clear
9:35 PM 61.9 °F 51.4 °F 69% 30.06 in 10.0 mi NNE 4.6 mph - N/A   Clear
9:55 PM 61.2 °F 51.8 °F 71% 30.06 in 10.0 mi NNE 3.5 mph - N/A   Clear
10:15 PM 60.4 °F 51.6 °F 73% 30.06 in 10.0 mi NNE 3.5 mph - N/A   Clear
10:35 PM 59.9 °F 51.8 °F 75% 30.06 in 10.0 mi North 3.5 mph - N/A   Clear
10:55 PM 59.0 °F 51.8 °F 77% 30.06 in 10.0 mi NNE 4.6 mph - N/A   Clear
11:15 PM 59.0 °F 51.8 °F 77% 30.06 in 10.0 mi NNE 3.5 mph - N/A   Clear
11:35 PM 58.8 °F 51.4 °F 76% 30.06 in 10.0 mi NNE 3.5 mph - N/A   Clear
11:55 PM 58.1 °F 51.3 °F 78% 30.06 in 10.0 mi Calm Calm - N/A   Clear